CAPE
1 1 1 1 1 nan nan nan nan nan nan nan nan nan nan nan nan nan nan nan nan nan nan nan nan nan nan nan nan nan nan 1 3 3 6 10 14 14 19 23 23 30 35 40 40 42 48 48 48 53 58 69 79 79 94 100 100 105 119 124 124 128 140 139 139 154 172 196 225 225 243 263 286 286 280 286 295 295 336 291 291 284 291 296 296 303
2 2 2 1 1 nan nan nan nan nan nan nan nan nan nan nan nan nan nan nan nan nan nan nan nan nan nan nan nan nan 0 1 3 3 6 9 13 13 17 23 23 28 35 40 40 47 47 51 51 57 62 67 74 74 84 89 89 92 101 99 99 110 109 120 120 143 159 183 208 208 248 269 292 292 301 295 291 291 291 254 254 236 245 250 250 259
1 1 1 2 2 0 nan nan nan nan nan nan nan nan nan nan nan nan nan nan nan nan nan nan nan nan nan nan nan nan 0 2 4 4 7 10 14 14 18 23 23 30 41 46 46 47 51 56 56 61 66 67 68 68 70 65 65 71 67 76 76 82 85 91 91 113 128 150 179 179 205 234 270 270 281 290 272 272 250 248 248 245 234 255 255 252
1 1 1 1 1 0 nan nan nan nan nan nan nan nan nan nan nan nan nan nan nan nan nan nan nan nan nan nan nan nan 1 2 4 4 7 11 15 15 19 28 28 33 41 48 48 53 52 57 57 57 52 54 55 55 52 51 51 52 54 50 50 57 65 75 75 83 92 111 124 124 139 160 170 170 189 197 208 208 209 232 232 268 265 277 277 307
3 3 3 2 2 0 0 nan nan nan nan nan nan nan nan nan nan nan nan nan nan nan nan nan nan nan nan nan nan nan 1 4 7 7 9 12 16 16 22 26 26 30 41 43 43 48 48 49 49 44 40 41 40 40 44 44 44 45 48 46 46 49 55 58 58 62 69 80 83 83 95 104 117 117 130 145 153 153 166 197 197 242 270 298 298 315
6 5 4 2 2 1 1 0 0 0 0 1 0 0 0 0 nan nan nan nan nan nan nan nan nan nan nan nan nan nan 2 5 8 8 10 12 17 17 19 22 22 26 30 32 32 39 41 38 38 40 39 39 40 40 44 46 46 46 49 48 48 54 55 58 58 60 63 70 72 72 80 83 92 92 106 119 128 128 130 145 145 216 244 272 272 283
7 7 6 3 3 2 1 0 1 1 0 1 2 2 3 3 2 2 1 0 0 0 nan nan nan nan nan nan 1 1 3 5 7 7 7 10 11 11 14 15 15 18 22 25 25 32 36 39 39 39 40 42 45 45 53 56 56 55 56 54 54 56 57 59 59 61 63 70 70 70 74 77 87 87 96 107 104 104 113 126 126 167 201 229 229 273
10 9 6 3 3 2 3 2 2 2 3 2 2 2 3 2 4 4 8 9 9 8 3 1 1 0 nan nan nan nan 0 nan nan nan 0 1 5 5 7 11 11 14 18 25 25 33 42 49 49 44 49 46 49 49 52 54 54 51 51 45 45 41 42 46 46 46 49 50 53 53 54 61 66 66 71 76 79 79 89 98 98 113 138 155 155 183
13 8 4 3 3 3 3 2 4 4 5 3 2 2 2 3 3 3 2 3 3 6 4 3 3 1 nan nan nan nan 2 2 nan nan nan nan 0 0 5 11 11 17 22 23 23 30 40 50 50 53 49 51 48 48 45 42 42 38 32 31 31 29 27 30 30 31 34 37 36 36 44 46 50 50 54 63 66 66 72 78 78 87 107 127 127 147
11 10 4 4 4 5 5 4 3 3 8 6 3 3 2 2 3 3 4 4 4 3 4 4 4 2 1 0 0 0 1 3 9 9 11 5 12 12 8 4 4 3 9 15 15 17 25 30 30 41 38 39 36 36 28 26 26 23 18 14 14 13 12 16 16 19 22 22 24 24 29 31 33 33 36 44 45 45 50 56 56 62 77 96 96 115
6 8 7 12 12 10 7 7 7 7 11 7 8 8 5 4 3 3 0 3 3 4 3 4 4 6 4 1 0 0 0 0 0 0 3 4 6 6 5 3 3 1 1 1 1 2 3 5 5 11 8 10 13 13 12 11 11 6 2 2 2 2 4 7 7 10 13 15 18 18 20 22 24 24 23 25 28 28 29 34 34 44 54 69 69 84
5 5 10 12 12 13 9 11 12 12 9 8 7 7 13 8 5 5 1 3 3 5 5 5 5 6 7 3 1 1 0 nan nan nan 0 1 2 2 1 nan nan nan nan nan nan nan nan nan nan nan 0 0 0 0 1 2 2 1 0 0 0 0 1 2 2 2 6 8 13 13 14 17 19 19 19 19 18 18 19 22 22 30 37 52 52 62
5 5 12 15 15 12 10 8 6 6 11 13 10 10 6 6 3 3 nan 3 3 5 3 5 5 8 6 3 1 1 0 0 0 0 1 1 1 1 0 nan nan nan nan nan nan nan nan nan nan nan nan nan nan nan nan 0 0 0 1 1 1 1 0 1 1 1 3 5 7 7 11 13 16 16 18 18 18 18 17 17 17 20 25 39 39 50
4 4 12 9 9 13 14 8 11 11 18 24 14 14 7 7 4 4 1 7 7 8 7 4 4 9 4 1 1 1 2 3 3 3 4 3 4 4 2 nan nan nan nan nan nan nan nan nan nan nan nan nan nan nan nan 0 0 0 0 0 0 1 1 1 1 2 4 6 8 8 11 15 16 16 18 18 20 20 19 18 18 18 22 28 28 34
18 33 36 28 28 25 20 20 26 26 37 81 42 42 27 27 14 14 6 10 10 19 13 9 9 11 3 0 1 1 5 7 6 6 6 4 6 6 5 0 0 nan nan nan nan nan nan nan nan nan nan nan nan nan nan 0 0 0 1 1 1 2 2 3 3 3 5 7 10 10 14 17 19 19 21 22 23 23 23 23 23 22 23 25 25 29
44 26 19 19 19 22 24 33 45 45 61 105 62 62 34 22 16 16 20 33 33 35 19 12 12 9 5 1 4 4 11 10 10 10 8 4 3 3 4 1 1 nan nan nan nan nan nan nan nan nan nan nan nan nan nan 0 0 1 2 2 2 4 5 5 5 5 7 9 13 13 15 20 24 24 26 27 29 29 29 28 28 28 28 30 30 33
17 18 24 31 31 39 44 56 68 68 86 76 48 48 35 26 18 18 13 31 31 22 15 12 12 9 9 11 18 18 15 6 13 13 10 3 1 1 3 2 2 0 nan nan nan nan nan nan nan nan nan nan nan nan nan 0 0 2 3 5 5 7 8 7 7 7 9 11 14 14 19 23 26 26 27 33 31 31 31 32 32 33 35 36 36 40
45 54 57 57 57 54 62 74 96 96 89 45 35 35 49 32 19 19 12 14 14 14 13 12 12 12 29 53 35 35 20 9 19 19 12 1 nan nan 2 2 2 0 0 nan nan nan nan nan nan nan nan nan nan nan 0 2 2 4 7 8 8 10 11 10 10 9 10 11 16 16 21 23 26 26 29 33 36 36 38 38 38 37 37 40 40 45
72 67 58 45 45 40 65 80 92 92 64 54 52 52 40 26 17 17 17 27 27 21 12 12 12 16 46 77 53 53 24 13 19 19 12 1 nan nan nan 4 4 4 1 nan nan nan nan nan nan nan nan nan 0 0 2 5 5 8 12 13 13 13 13 11 11 11 11 13 16 16 21 24 27 27 29 35 35 35 38 40 40 41 39 42 42 45
74 62 45 46 46 31 36 68 103 103 89 78 68 68 37 30 16 16 10 13 13 22 6 3 3 34 61 30 6 6 3 8 17 17 14 4 nan nan nan 6 6 8 3 0 0 nan nan nan nan nan nan nan 1 1 3 7 7 10 13 17 17 16 15 12 12 11 12 15 17 17 19 23 27 27 29 35 37 37 36 38 38 38 39 43 43 47
71 84 73 49 49 11 22 72 88 88 104 111 83 83 44 24 14 14 8 8 8 8 12 15 15 78 44 20 6 6 3 9 16 16 14 11 3 3 1 7 7 8 4 1 1 0 0 0 0 nan nan nan 1 1 3 6 6 10 15 15 15 14 14 12 12 12 13 15 17 17 19 24 26 26 31 34 34 34 36 38 38 38 40 44 44 46
53 43 28 21 21 15 35 50 92 92 109 95 51 51 40 24 19 19 15 5 5 9 18 31 31 51 41 29 13 13 5 9 13 13 18 20 7 7 1 9 9 12 6 2 2 0 0 0 0 nan nan 0 1 1 5 7 7 8 12 13 13 14 13 12 12 12 12 13 18 18 19 24 26 26 32 35 35 35 37 36 36 39 42 43 43 47
26 26 30 28 28 17 29 59 86 86 104 80 53 53 36 28 7 7 4 4 4 5 19 52 52 49 39 29 13 13 3 6 14 14 28 23 7 7 2 11 11 13 6 1 1 0 2 1 1 0 1 2 3 3 5 7 7 8 9 12 12 14 12 12 12 10 10 12 16 16 18 23 26 26 32 31 36 36 38 40 40 40 44 45 45 47
29 22 16 10 10 7 10 55 95 95 99 53 18 18 5 3 3 3 4 6 6 18 36 29 29 22 22 15 6 6 1 2 11 11 27 26 15 15 8 12 12 12 6 1 1 0 1 2 2 2 2 2 4 4 5 7 7 7 8 9 9 9 9 7 7 7 8 11 15 15 20 23 25 25 30 31 36 36 36 39 39 40 41 42 42 45
62 50 37 20 20 40 32 85 120 120 62 32 13 13 5 2 8 8 18 29 29 37 36 32 32 24 18 16 2 2 nan nan 6 6 19 22 26 26 17 12 12 10 4 0 0 1 3 3 3 3 4 2 1 1 4 6 6 7 7 7 7 7 4 3 3 3 6 9 15 15 20 23 24 24 27 31 34 34 37 38 38 39 40 42 42 42
112 104 96 121 121 172 213 220 192 192 120 67 88 88 43 26 21 21 14 13 13 15 17 17 17 19 18 16 3 3 nan 0 3 3 12 13 15 15 8 5 5 2 1 2 2 4 6 6 6 5 6 5 2 2 3 5 5 7 6 6 6 3 3 3 3 3 3 9 15 15 19 20 24 24 28 30 31 31 33 34 34 33 35 35 35 36
180 199 251 282 282 263 228 206 225 225 207 82 9 9 19 33 16 16 4 2 2 4 3 11 11 10 11 10 4 4 2 1 2 2 4 4 3 3 1 1 1 4 12 18 18 19 18 14 14 9 8 7 3 3 3 4 4 8 10 8 8 3 4 6 6 2 2 9 14 14 19 22 23 23 25 27 31 31 33 33 33 33 31 30 30 34
172 203 203 210 210 199 204 226 165 165 45 7 8 8 12 20 11 11 2 1 1 5 6 5 5 3 4 3 2 2 7 7 5 5 3 5 3 3 5 21 21 42 46 43 43 36 28 17 17 13 11 10 1 1 nan 1 1 6 10 10 10 6 5 6 6 5 3 7 13 13 18 20 22 22 22 23 28 28 31 30 30 30 31 29 29 33
158 184 192 193 193 184 208 130 1 1 0 1 5 5 12 12 8 8 3 6 6 7 5 3 3 3 2 3 3 3 10 12 9 9 12 17 9 9 26 59 59 49 33 18 18 5 3 3 3 5 10 10 3 3 nan 0 0 7 10 8 8 9 8 6 6 5 7 8 15 15 19 23 22 22 23 24 25 25 28 31 31 34 30 29 29 28
92 100 101 105 105 90 14 nan nan nan nan 0 2 2 3 5 4 4 4 9 9 10 7 5 5 5 5 5 8 8 8 10 14 14 42 40 24 24 34 35 35 28 20 10 10 3 0 0 0 2 5 13 14 14 5 9 9 12 14 13 13 9 7 7 7 6 6 9 17 17 25 29 26 26 25 25 25 25 28 30 30 33 33 33 33 30
88 93 33 6 6 2 0 nan nan nan nan 0 0 0 nan 1 1 1 3 13 13 14 9 8 8 7 8 7 5 5 5 16 47 47 72 37 18 18 20 20 20 23 26 19 19 10 3 2 2 11 4 nan nan nan 0 2 2 6 9 10 10 10 8 4 4 4 6 8 14 14 23 32 35 35 31 26 27 27 25 26 26 25 23 27 27 25
0 nan nan nan nan nan nan nan nan nan nan nan nan nan nan nan nan nan 1 8 8 17 19 15 15 11 13 12 9 9 4 9 19 19 34 33 26 26 27 27 27 20 26 54 54 51 30 17 17 33 40 23 7 7 nan nan nan nan nan 0 0 0 1 4 4 6 7 7 8 8 12 17 19 19 25 26 22 22 18 17 17 18 23 26 26 23
0 nan nan nan nan nan 0 nan nan nan nan nan nan nan nan nan nan nan 2 9 9 15 22 20 20 14 12 11 8 8 8 9 19 19 40 46 36 36 47 50 50 38 52 55 55 38 19 12 12 10 8 15 22 22 11 4 4 4 3 2 2 1 0 3 3 9 9 7 9 9 10 11 13 13 15 19 16 16 13 11 11 10 18 24 24 20
nan nan nan nan nan nan 0 nan nan nan nan nan nan nan nan nan 0 0 3 6 6 9 21 14 14 13 13 11 10 10 10 14 23 23 37 61 60 60 74 72 72 68 56 43 43 33 19 15 15 9 4 6 10 10 13 10 10 7 3 0 0 1 0 0 0 0 3 5 4 4 4 4 9 9 7 6 7 7 6 3 3 2 3 11 11 14
nan nan nan nan nan 0 0 0 nan nan nan nan nan nan nan 1 2 2 2 3 3 4 8 11 11 10 11 13 13 13 9 10 21 21 39 45 39 39 37 42 42 50 51 47 47 34 22 19 19 18 8 5 3 3 4 7 7 0 nan nan nan nan 0 0 0 nan 0 nan nan nan nan nan nan nan nan nan nan nan nan nan nan nan nan 3 3 11
nan nan nan 0 0 0 0 0 0 0 nan nan 0 0 0 2 2 2 2 3 3 6 14 17 17 14 14 17 15 15 13 12 25 25 40 31 26 26 26 24 24 34 43 44 44 39 30 25 25 24 17 9 4 4 5 7 7 9 2 0 0 2 1 nan nan nan nan nan nan nan nan nan nan nan nan nan nan nan nan nan nan nan nan 0 0 1
0 0 1 1 1 2 1 2 1 1 1 4 4 4 4 6 6 6 7 11 11 8 12 24 24 26 27 20 18 18 17 10 17 17 29 28 22 22 21 25 25 37 39 39 39 36 35 24 24 19 13 10 5 5 6 7 7 12 15 18 18 16 9 1 1 nan nan nan nan nan nan nan nan nan nan nan nan nan nan nan nan nan nan nan nan nan
1 3 8 12 12 13 7 7 5 5 6 4 5 5 8 10 13 13 10 13 13 17 20 12 12 18 20 28 21 21 15 15 19 19 24 25 24 24 25 24 24 26 32 35 35 31 29 23 23 14 9 10 13 13 12 8 8 8 7 12 12 10 3 0 0 nan nan nan nan nan nan nan nan nan nan nan nan nan nan nan nan nan nan nan nan nan
2 8 14 16 16 14 12 8 5 5 3 3 6 6 8 11 17 17 20 21 21 22 23 19 19 18 12 10 18 18 17 15 15 15 15 19 22 22 25 17 17 20 23 27 27 24 22 16 16 14 12 12 11 11 12 11 11 12 12 14 14 9 2 nan nan nan nan nan nan nan nan nan nan nan nan nan nan nan nan nan nan nan nan nan nan nan
6 12 17 14 14 8 4 2 1 1 2 5 10 10 11 11 14 14 22 22 22 20 23 19 19 15 12 13 13 13 10 7 10 10 6 6 10 10 15 13 13 12 16 20 20 20 18 15 15 13 19 16 16 16 14 15 15 18 31 21 21 19 16 9 9 nan nan nan nan nan nan nan nan nan nan nan nan nan nan nan nan nan nan nan nan nan
9 11 10 5 5 1 0 0 2 2 7 10 12 12 12 13 10 10 14 16 16 15 10 11 11 13 13 13 11 11 7 3 5 5 2 nan nan nan 4 5 5 7 11 15 15 16 15 14 14 15 16 16 21 21 20 21 21 38 48 39 39 39 45 40 40 7 nan nan nan nan nan nan nan nan nan nan nan nan nan nan nan nan nan nan nan nan
16 7 2 0 0 nan nan 2 9 9 14 15 13 13 15 14 10 10 8 8 8 10 9 8 8 9 10 8 9 9 9 6 4 4 1 nan nan nan nan 2 2 4 6 7 7 12 15 14 14 14 16 17 15 15 16 18 18 25 40 45 45 51 58 54 54 0 nan nan nan nan nan nan nan nan nan nan nan nan nan nan nan nan nan nan nan nan
3 0 0 0 0 0 5 12 15 15 16 13 11 11 10 10 6 6 5 7 7 9 9 9 9 9 8 6 7 7 10 10 5 5 1 nan nan nan nan nan nan 1 2 2 2 7 16 19 19 12 16 15 18 18 16 13 13 13 15 24 24 30 25 49 49 nan nan nan nan nan nan nan nan nan nan nan nan nan nan nan nan nan nan nan nan nan
0 0 1 2 2 6 14 18 14 14 13 10 7 7 7 12 7 7 7 9 9 13 13 12 12 10 8 8 7 7 9 16 16 16 8 3 0 0 nan 0 0 2 3 2 2 2 8 15 15 13 16 15 15 15 13 9 9 8 8 11 11 14 19 28 28 nan nan nan nan nan nan nan nan nan nan nan nan nan nan nan nan nan nan nan nan nan
nan 0 3 6 6 11 17 14 11 11 11 8 8 8 8 15 9 9 12 12 12 14 17 15 15 11 10 7 6 6 4 9 10 10 5 4 8 8 9 8 8 8 6 3 3 3 3 8 8 14 12 12 12 12 10 7 7 6 7 9 9 11 14 23 23 nan nan nan nan nan nan nan nan nan nan nan nan nan nan nan nan nan nan nan nan nan
3 5 7 11 11 16 17 12 9 9 7 7 10 10 14 18 12 12 19 18 18 17 18 13 13 10 7 6 4 4 3 3 2 2 1 2 8 8 7 7 7 7 4 4 4 4 4 7 7 11 10 9 8 8 6 4 4 5 6 8 8 10 10 13 13 nan nan nan nan nan nan nan nan nan nan nan nan nan nan nan nan nan nan nan nan nan
3 5 8 11 11 12 9 8 6 6 6 9 16 16 19 21 23 23 23 22 22 17 8 6 6 5 6 5 3 3 3 3 2 2 2 3 13 13 11 6 6 5 3 2 2 4 4 7 7 10 11 8 5 5 3 3 3 5 7 7 7 9 12 6 6 nan nan nan nan nan nan nan nan nan nan nan nan nan nan nan nan nan nan nan nan nan
4 5 7 10 10 10 9 9 10 10 9 11 17 17 22 23 23 23 26 14 14 5 4 3 3 4 4 4 4 4 4 5 6 6 6 6 8 8 9 7 7 7 4 2 2 3 3 6 6 6 4 4 4 4 3 4 4 6 6 7 7 8 9 8 8 nan nan nan nan nan nan nan nan nan nan nan nan nan nan nan nan nan nan nan nan nan
3 5 7 7 7 6 8 9 12 12 14 17 21 21 23 33 35 35 11 2 2 3 4 5 5 5 4 4 8 8 13 13 10 10 9 10 10 10 8 5 5 4 4 2 2 nan 3 5 5 6 4 2 3 3 4 5 5 6 5 7 7 7 7 0 0 nan nan nan nan nan nan nan nan nan nan nan nan nan nan nan nan nan nan nan nan nan
3 4 7 7 7 6 6 8 12 12 16 21 25 25 33 33 8 8 1 1 1 3 3 5 5 6 6 6 9 9 13 11 12 12 12 12 10 10 8 6 6 4 3 4 4 3 3 2 2 3 6 4 3 3 3 5 5 7 7 5 5 3 2 nan nan nan nan nan 0 0 0 nan nan nan nan 2 0 0 nan nan nan nan nan nan nan nan
2 3 6 8 8 8 7 10 13 13 18 20 23 23 33 14 1 1 0 1 1 2 3 5 5 6 6 5 10 10 12 9 8 8 11 10 10 10 11 9 9 4 2 2 2 5 7 4 4 1 1 11 8 8 3 6 6 9 2 1 1 nan 0 nan nan nan nan nan nan nan nan nan nan nan nan 1 nan nan nan nan nan nan nan nan nan nan
CIN
-0 -0 -0 -0 -0 nan nan nan nan nan nan nan nan nan nan nan nan nan nan nan nan nan nan nan nan nan nan nan nan nan nan -0 -0 -0 -0 -0 -0 -0 -0 -0 -0 -0 -0 -0 -0 -0 -0 -0 -0 -0 -0 -0 -0 -0 -0 -0 -0 -0 -0 -0 -0 -0 -0 -0 -0 -0 -0 -0 -0 -0 -0 -0 -0 -0 -0 -0 -0 -0 -0 -0 -0 -0 -0 -0 -0 -0
-0 -0 -0 -0 -0 nan nan nan nan nan nan nan nan nan nan nan nan nan nan nan nan nan nan nan nan nan nan nan nan nan -0 -0 -0 -0 -0 -0 -0 -0 -0 -0 -0 -0 -0 -0 -0 -0 -0 -0 -0 -0 -0 -0 -0 -0 -0 -0 -0 -0 -0 -0 -0 -0 -0 -0 -0 -0 -0 -0 -0 -0 -0 -0 -0 -0 -0 -0 -0 -0 -0 -0 -0 -0 -0 -0 -0 -0
-0 -0 -0 -0 -0 -0 nan nan nan nan nan nan nan nan nan nan nan nan nan nan nan nan nan nan nan nan nan nan nan nan -0 -0 -0 -0 -0 -0 -0 -0 -0 -0 -0 -0 -0 -0 -0 -0 -0 -0 -0 -0 -0 -0 -0 -0 -0 -0 -0 -0 -0 -0 -0 -0 -0 -0 -0 -0 -0 -0 -0 -0 -0 -0 -0 -0 -0 -0 -0 -0 -0 -0 -0 -0 -0 -0 -0 -0
-0 -0 -0 -0 -0 -0 nan nan nan nan nan nan nan nan nan nan nan nan nan nan nan nan nan nan nan nan nan nan nan nan -0 -0 -0 -0 -0 -0 -0 -0 -0 -0 -0 -0 -0 -0 -0 -0 -0 -0 -0 -0 -0 -0 -0 -0 -0 -0 -0 -0 -0 -0 -0 -0 -0 -0 -0 -0 -0 -0 -0 -0 -0 -0 -0 -0 -0 -0 -0 -0 -0 -0 -0 -0 -0 -0 -0 -0
-0 -0 -0 -0 -0 -0 -0 nan nan nan nan nan nan nan nan nan nan nan nan nan nan nan nan nan nan nan nan nan nan nan -0 -0 -0 -0 -0 -0 -0 -0 -0 -0 -0 -0 -0 -0 -0 -0 -0 -0 -0 -0 -0 -0 -0 -0 -0 -0 -0 -0 -0 -0 -0 -0 -0 -0 -0 -0 -0 -0 -0 -0 -0 -0 -0 -0 -0 -0 -0 -0 -0 -0 -0 -0 -0 -0 -0 -0
-0 -0 -0 -0 -0 -0 -0 -0 -0 -0 -0 -0 -0 -0 -0 -0 nan nan nan nan nan nan nan nan nan nan nan nan nan nan -0 -0 -0 -0 -0 -0 -0 -0 -0 -0 -0 -0 -0 -0 -0 -0 -0 -0 -0 -0 -0 -0 -0 -0 -0 -0 -0 -0 -0 -0 -0 -0 -0 -0 -0 -0 -0 -0 -0 -0 -0 -0 -0 -0 -0 -0 -0 -0 -0 -0 -0 -0 -0 -0 -0 -0
-0 -0 -0 -0 -0 -0 -0 -0 -0 -0 -0 -0 -0 -0 -0 -0 -0 -0 -0 -0 -0 -0 nan nan nan nan nan nan -0 -0 -0 -0 -0 -0 -0 -0 -0 -0 -0 -0 -0 -0 -0 -0 -0 -0 -0 -0 -0 -0 -0 -0 -0 -0 -0 -0 -0 -0 -0 -0 -0 -0 -0 -0 -0 -0 -0 -0 -0 -0 -0 -0 -0 -0 -0 -0 -0 -0 -0 -0 -0 -0 -0 -0 -0 -0
-0 -0 -0 -0 -0 -0 -0 -0 -0 -0 -0 -0 -0 -0 -0 -0 -0 -0 -0 -0 -0 -0 -0 -0 -0 -0 nan nan nan nan -0 nan nan nan -0 -0 -0 -0 -0 -0 -0 -0 -0 -0 -0 -0 -0 -0 -0 -0 -0 -0 -0 -0 -0 -0 -0 -0 -0 -0 -0 -0 -0 -0 -0 -0 -0 -0 -0 -0 -0 -0 -0 -0 -0 -0 -0 -0 -0 -0 -0 -0 -0 -0 -0 -0
-0 -0 -0 -0 -0 -0 -0 -0 -0 -0 -0 -0 -0 -0 -0 -0 -0 -0 -0 -0 -0 -0 -0 -0 -0 -0 nan nan nan nan -0 -0 nan nan nan nan -0 -0 -0 -0 -0 -0 -0 -0 -0 -0 -0 -0 -0 -0 -0 -0 -0 -0 -0 -0 -0 -0 -0 -0 -0 -0 -0 -0 -0 -0 -0 -0 -0 -0 -0 -0 -0 -0 -0 -0 -0 -0 -0 -0 -0 -0 -0 -0 -0 -0
-2 -0 -0 -0 -0 -0 -0 -0 -0 -0 -0 -0 -0 -0 -0 -0 -0 -0 -0 -0 -0 -0 -0 -0 -0 -0 -0 -0 -0 -0 -0 -0 -0 -0 -0 -0 -0 -0 -0 -0 -0 -0 -0 -0 -0 -0 -0 -0 -0 -0 -0 -0 -0 -0 -0 -0 -0 -0 -0 -0 -0 -0 -0 -0 -0 -0 -0 -0 -0 -0 -0 -0 -0 -0 -0 -0 -0 -0 -0 -0 -0 -0 -0 -0 -0 -0
-1 -0 -0 -0 -0 -0 -0 -0 -0 -0 -0 -0 -0 -0 -0 -0 -2 -2 -3 -0 -0 -0 -0 -0 -0 -0 -0 -0 -0 -0 -0 -0 -0 -0 -0 -0 -0 -0 -0 -0 -0 -0 -0 -0 -0 -0 -0 -0 -0 -0 -0 -0 -0 -0 -0 -0 -0 -0 -0 -0 -0 -0 -0 -0 -0 -0 -0 -0 -0 -0 -0 -0 -0 -0 -0 -0 -0 -0 -0 -0 -0 -0 -0 -0 -0 -0
-0 -4 -3 -2 -2 -0 -0 -0 -0 -0 -4 -1 -1 -1 -0 -0 -7 -7 -6 -3 -3 -0 -0 -0 -0 -0 -0 -0 -0 -0 -0 nan nan nan -0 -0 -0 -0 -0 nan nan nan nan nan nan nan nan nan nan nan -0 -0 -0 -0 -0 -0 -0 -0 -0 -0 -0 -0 -0 -0 -0 -0 -0 -0 -0 -0 -0 -0 -0 -0 -0 -0 -0 -0 -0 -0 -0 -0 -0 -0 -0 -0
-4 -4 -1 -1 -1 -0 -0 -1 -4 -4 -0 -0 -0 -0 -0 -0 -11 -11 nan -0 -0 -0 -0 -0 -0 -0 -0 -0 -0 -0 -0 -0 -0 -0 -0 -0 -0 -0 -0 nan nan nan nan nan nan nan nan nan nan nan nan nan nan nan nan -0 -0 -0 -0 -0 -0 -0 -0 -0 -0 -0 -0 -0 -0 -0 -0 -0 -0 -0 -0 -0 -0 -0 -0 -0 -0 -0 -0 -0 -0 -0
-1 -2 -0 -0 -0 -0 -2 -4 -2 -2 -0 -0 -0 -0 -0 -0 -5 -5 -7 -0 -0 -0 -0 -0 -0 -0 -0 -0 -0 -0 -0 -0 -0 -0 -0 -0 -0 -0 -0 nan nan nan nan nan nan nan nan nan nan nan nan nan nan nan nan -0 -0 -0 -0 -0 -0 -0 -0 -0 -0 -0 -0 -0 -0 -0 -0 -0 -0 -0 -0 -0 -0 -0 -0 -0 -0 -0 -0 -0 -0 -0
-0 -0 -0 -1 -1 -3 -4 -5 -4 -4 -3 -0 -0 -0 -0 -0 -0 -0 -4 -1 -1 -0 -0 -0 -0 -0 -0 -0 -0 -0 -0 -0 -0 -0 -0 -0 -0 -0 -0 -0 -0 nan nan nan nan nan nan nan nan nan nan nan nan nan nan -0 -0 -0 -0 -0 -0 -0 -0 -0 -0 -0 -0 -0 -0 -0 -0 -0 -0 -0 -0 -0 -0 -0 -0 -0 -0 -0 -0 -0 -0 -0
-1 -1 -1 -1 -1 -2 -3 -7 -3 -3 -0 -0 -0 -0 -0 -0 -2 -2 -2 -1 -1 -1 -0 -0 -0 -0 -0 -0 -0 -0 -0 -0 -0 -0 -0 -0 -0 -0 -0 -0 -0 nan nan nan nan nan nan nan nan nan nan nan nan nan nan -0 -0 -0 -0 -0 -0 -0 -0 -0 -0 -0 -0 -0 -0 -0 -0 -0 -0 -0 -0 -0 -0 -0 -0 -0 -0 -0 -0 -0 -0 -0
-0 -0 -0 -1 -1 -2 -6 -5 -1 -1 -0 -0 -0 -0 -0 -1 -2 -2 -2 -1 -1 -0 -0 -1 -1 -0 -0 -0 -0 -0 -0 -0 -0 -0 -0 -0 -0 -0 -0 -0 -0 -0 nan nan nan nan nan nan nan nan nan nan nan nan nan -0 -0 -0 -0 -0 -0 -0 -0 -0 -0 -0 -0 -0 -0 -0 -0 -0 -0 -0 -0 -0 -0 -0 -0 -0 -0 -0 -0 -0 -0 -0
-1 -2 -2 -2 -2 -3 -4 -2 -0 -0 -0 -0 -0 -0 -0 -1 -2 -2 -1 -0 -0 -0 -0 -1 -1 -0 -0 -0 -0 -0 -0 -0 -0 -0 -0 -0 nan nan -0 -0 -0 -0 -0 nan nan nan nan nan nan nan nan nan nan nan -0 -0 -0 -0 -0 -0 -0 -0 -0 -0 -0 -0 -0 -0 -0 -0 -0 -0 -0 -0 -0 -0 -0 -0 -0 -0 -0 -0 -0 -0 -0 -0
-0 -2 -2 -2 -2 -5 -4 -1 -0 -0 -0 -0 -0 -0 -1 -2 -2 -2 -1 -1 -1 -0 -1 -0 -0 -0 -0 -0 -0 -0 -0 -0 -0 -0 -0 -0 nan nan nan -0 -0 -0 -0 nan nan nan nan nan nan nan nan nan -0 -0 -0 -0 -0 -0 -0 -0 -0 -0 -0 -0 -0 -0 -0 -0 -0 -0 -0 -0 -0 -0 -0 -0 -0 -0 -0 -0 -0 -0 -0 -0 -0 -0
-0 -1 -2 -1 -1 -3 -1 -0 -0 -0 -0 -1 -0 -0 -1 -1 -2 -2 -1 -1 -1 -1 -1 -0 -0 -0 -0 -0 -0 -0 -0 -0 -0 -0 -0 -0 nan nan nan -0 -0 -0 -0 -0 -0 nan nan nan nan nan nan nan -0 -0 -0 -0 -0 -0 -0 -0 -0 -0 -0 -0 -0 -0 -0 -0 -0 -0 -0 -0 -0 -0 -0 -0 -0 -0 -0 -0 -0 -0 -0 -0 -0 -0
-0 -0 -1 -2 -2 -0 -0 -0 -1 -1 -0 -0 -0 -0 -1 -1 -1 -1 -2 -2 -2 -2 -0 -0 -0 -0 -0 -0 -0 -0 -0 -0 -0 -0 -0 -0 -0 -0 -0 -0 -0 -0 -0 -0 -0 -0 -0 -0 -0 nan nan nan -0 -0 -0 -0 -0 -0 -0 -0 -0 -0 -0 -0 -0 -0 -0 -0 -0 -0 -0 -0 -0 -0 -0 -0 -0 -0 -0 -0 -0 -0 -0 -0 -0 -0
-0 -1 -3 -2 -2 -0 -0 -1 -0 -0 -0 -1 -1 -1 -1 -1 -0 -0 -1 -1 -1 -0 -0 -0 -0 -0 -0 -0 -0 -0 -0 -0 -1 -1 -1 -0 -0 -0 -0 -0 -0 -0 -0 -0 -0 -0 -0 -0 -0 nan nan -1 -0 -0 -0 -0 -0 -0 -0 -0 -0 -0 -0 -0 -0 -0 -0 -0 -0 -0 -0 -0 -0 -0 -0 -0 -0 -0 -0 -0 -0 -0 -0 -0 -0 -0
-1 -1 -1 -1 -1 -1 -1 -0 -0 -0 -0 -2 -2 -2 -1 -0 -0 -0 -0 -0 -0 -0 -0 -0 -0 -0 -0 -0 -0 -0 -0 -0 -0 -0 -1 -0 -0 -0 -0 -0 -0 -0 -0 -0 -0 -0 -0 -0 -0 -0 -0 -0 -0 -0 -0 -0 -0 -0 -0 -0 -0 -0 -0 -0 -0 -0 -0 -0 -0 -0 -0 -0 -0 -0 -0 -0 -0 -0 -0 -0 -0 -0 -0 -0 -0 -0
-1 -1 -2 -2 -2 -2 -1 -0 -0 -0 -0 -3 -2 -2 -1 -0 -0 -0 -0 -0 -0 -0 -0 -0 -0 -0 -0 -0 -0 -0 -0 -0 -0 -0 -1 -1 -0 -0 -0 -0 -0 -0 -0 -0 -0 -0 -0 -0 -0 -0 -0 -0 -0 -0 -0 -0 -0 -0 -0 -0 -0 -0 -0 -0 -0 -0 -0 -0 -0 -0 -0 -0 -0 -0 -0 -0 -0 -0 -0 -0 -0 -0 -0 -0 -0 -0
-1 -2 -4 -3 -3 -0 -0 -0 -0 -0 -1 -1 -1 -1 -1 -1 -0 -0 -0 -0 -0 -0 -0 -0 -0 -0 -0 -0 -0 -0 nan nan -0 -0 -0 -3 -0 -0 -0 -0 -0 -0 -0 -0 -0 -0 -0 -0 -0 -0 -0 -0 -0 -0 -0 -0 -0 -0 -0 -0 -0 -0 -0 -0 -0 -0 -0 -0 -0 -0 -0 -0 -0 -0 -0 -0 -0 -0 -0 -0 -0 -0 -0 -0 -0 -0
-0 -1 -1 -1 -1 -0 -0 -0 -0 -0 -0 -0 -0 -0 -2 -2 -2 -2 -3 -4 -4 -3 -1 -0 -0 -0 -0 -0 -0 -0 nan -2 -0 -0 -0 -2 -1 -1 -0 -0 -0 -0 -0 -0 -0 -0 -0 -0 -0 -0 -0 -0 -0 -0 -0 -0 -0 -0 -0 -0 -0 -0 -3 -5 -5 -0 -0 -0 -0 -0 -0 -0 -0 -0 -0 -0 -0 -0 -0 -0 -0 -0 -0 -0 -0 -0
-0 -0 -0 -0 -0 -0 -0 -0 -0 -0 -0 -0 -0 -0 -0 -0 -0 -0 -0 -3 -3 -5 -3 -0 -0 -0 -0 -0 -0 -0 -0 -0 -0 -0 -0 -0 -0 -0 -0 -0 -0 -0 -0 -0 -0 -0 -0 -0 -0 -0 -0 -0 -0 -0 -0 -0 -0 -0 -0 -0 -0 -1 -6 -8 -8 -0 -0 -0 -0 -0 -0 -0 -0 -0 -0 -0 -0 -0 -0 -0 -0 -0 -0 -0 -0 -0
-0 -0 -0 -0 -0 -0 -0 -0 -0 -0 -0 -0 -0 -0 -0 -0 -0 -0 -0 -0 -0 -0 -0 -0 -0 -0 -0 -0 -0 -0 -0 -0 -0 -0 -0 -0 -0 -0 -0 -0 -0 -0 -0 -0 -0 -0 -0 -0 -0 -0 -0 -0 -0 -0 nan -1 -1 -0 -0 -0 -0 -1 -7 -9 -9 -7 -0 -0 -0 -0 -0 -0 -0 -0 -0 -0 -0 -0 -0 -0 -0 -0 -0 -0 -0 -0
-0 -0 -0 -0 -0 -0 -0 -0 -0 -0 -0 -0 -0 -0 -0 -0 -0 -0 -0 -0 -0 -0 -0 -0 -0 -0 -0 -0 -0 -0 -0 -0 -0 -0 -0 -0 -0 -0 -0 -0 -0 -1 -0 -0 -0 -0 -0 -0 -0 -0 -0 -0 -0 -0 nan -2 -2 -0 -0 -0 -0 -2 -6 -9 -9 -9 -3 -0 -0 -0 -0 -0 -0 -0 -0 -0 -0 -0 -0 -0 -0 -0 -0 -0 -0 -0
-0 -0 -0 -0 -0 -0 -0 nan nan nan nan -0 -0 -0 -0 -0 -0 -0 -0 -0 -0 -0 -0 -0 -0 -0 -0 -0 -0 -0 -0 -0 -0 -0 -0 -0 -0 -0 -0 -0 -0 -0 -0 -0 -0 -0 -0 -0 -0 -0 -0 -0 -0 -0 -1 -2 -2 -1 -1 -3 -3 -7 -9 -11 -11 -11 -7 -0 -0 -0 -0 -0 -0 -0 -0 -0 -0 -0 -0 -0 -0 -0 -0 -0 -0 -0
-0 -0 -0 -0 -0 -0 -0 nan nan nan nan -0 -0 -0 nan -0 -0 -0 -0 -0 -0 -0 -0 -0 -0 -0 -0 -0 -0 -0 -0 -0 -1 -1 -0 -0 -0 -0 -0 -0 -0 -0 -0 -0 -0 -0 -0 -0 -0 -0 -5 nan nan nan -18 -14 -14 -12 -10 -11 -11 -10 -13 -18 -18 -15 -9 -5 -0 -0 -0 -0 -0 -0 -0 -0 -0 -0 -0 -0 -0 -0 -0 -0 -0 -0
-0 nan nan nan nan nan nan nan nan nan nan nan nan nan nan nan nan nan -0 -0 -0 -0 -0 -0 -0 -0 -0 -0 -0 -0 -0 -0 -0 -0 -0 -0 -0 -0 -0 -0 -0 -0 -0 -0 -0 -0 -0 -0 -0 -0 -0 -0 -0 -0 nan nan nan nan nan -14 -14 -18 -18 -16 -16 -11 -8 -6 -7 -7 -6 -3 -1 -1 -0 -0 -0 -0 -0 -0 -0 -0 -0 -0 -0 -0
-0 nan nan nan nan nan -0 nan nan nan nan nan nan nan nan nan nan nan -0 -0 -0 -0 -0 -0 -0 -0 -0 -0 -0 -0 -0 -0 -0 -0 -0 -0 -0 -0 -0 -0 -0 -0 -0 -0 -0 -0 -0 -0 -0 -0 -0 -0 -0 -0 -0 -1 -1 -0 -2 -3 -3 -7 -12 -11 -11 -8 -6 -6 -6 -6 -6 -5 -4 -4 -2 -0 -0 -0 -0 -0 -0 -0 -0 -0 -0 -0
nan nan nan nan nan nan -0 nan nan nan nan nan nan nan nan nan -3 -3 -0 -0 -0 -0 -0 -0 -0 -0 -0 -0 -0 -0 -0 -0 -0 -0 -0 -0 -0 -0 -0 -0 -0 -0 -0 -0 -0 -0 -0 -0 -0 -0 -0 -0 -0 -0 -0 -0 -0 -0 -7 -12 -12 -7 -10 -11 -11 -14 -11 -8 -10 -10 -11 -12 -8 -8 -7 -5 -2 -2 -1 -0 -0 -0 -0 -0 -0 -0
nan nan nan nan nan -0 -0 -0 nan nan nan nan nan nan nan -1 -1 -1 -1 -1 -1 -0 -0 -0 -0 -0 -0 -0 -0 -0 -0 -0 -0 -0 -0 -0 -0 -0 -0 -0 -0 -0 -0 -0 -0 -0 -0 -0 -0 -0 -0 -0 -0 -0 -0 -0 -0 -15 nan nan nan nan -17 -18 -18 nan -19 nan nan nan nan nan nan nan nan nan nan nan nan nan nan nan nan -0 -0 -0
nan nan nan -0 -0 -0 -0 -0 -0 -0 nan nan -1 -1 -1 -0 -1 -1 -2 -1 -1 -0 -0 -0 -0 -0 -0 -0 -0 -0 -0 -0 -0 -0 -0 -0 -0 -0 -0 -0 -0 -0 -0 -0 -0 -0 -0 -0 -0 -0 -0 -0 -0 -0 -0 -0 -0 -7 -13 -14 -14 -13 -18 nan nan nan nan nan nan nan nan nan nan nan nan nan nan nan nan nan nan nan nan -0 -0 -0
-0 -0 -0 -0 -0 -0 -0 -0 -0 -0 -0 -0 -0 -0 -0 -0 -0 -0 -0 -0 -0 -0 -0 -0 -0 -0 -0 -0 -0 -0 -0 -0 -0 -0 -0 -0 -0 -0 -0 -0 -0 -0 -0 -0 -0 -0 -0 -0 -0 -0 -0 -0 -0 -0 -0 -0 -0 -0 -0 -0 -0 -0 -5 -25 -25 nan nan nan nan nan nan nan nan nan nan nan nan nan nan nan nan nan nan nan nan nan
-0 -0 -0 -0 -0 -0 -0 -0 -0 -0 -0 -0 -0 -0 -0 -0 -0 -0 -0 -0 -0 -0 -0 -0 -0 -0 -0 -0 -1 -1 -1 -0 -0 -0 -0 -0 -0 -0 -0 -0 -0 -0 -0 -0 -0 -0 -0 -0 -0 -0 -0 -0 -0 -0 -0 -0 -0 -0 -0 -0 -0 -0 -2 -15 -15 nan nan nan nan nan nan nan nan nan nan nan nan nan nan nan nan nan nan nan nan nan
-0 -0 -0 -0 -0 -0 -0 -0 -0 -0 -0 -0 -0 -0 -0 -0 -0 -0 -0 -0 -0 -0 -0 -0 -0 -0 -2 -2 -0 -0 -0 -0 -0 -0 -1 -0 -0 -0 -0 -0 -0 -0 -0 -0 -0 -0 -0 -0 -0 -0 -0 -0 -0 -0 -0 -0 -0 -0 -0 -0 -0 -0 -0 nan nan nan nan nan nan nan nan nan nan nan nan nan nan nan nan nan nan nan nan nan nan nan
-0 -0 -0 -0 -0 -0 -0 -0 -0 -0 -0 -0 -0 -0 -0 -0 -0 -0 -0 -0 -0 -0 -0 -0 -0 -0 -0 -0 -0 -0 -0 -2 -0 -0 -3 -3 -0 -0 -0 -0 -0 -0 -0 -0 -0 -0 -0 -0 -0 -0 -0 -0 -0 -0 -0 -0 -0 -0 -0 -0 -0 -0 -0 -0 -0 nan nan nan nan nan nan nan nan nan nan nan nan nan nan nan nan nan nan nan nan nan
-0 -0 -0 -0 -0 -0 -0 -0 -0 -0 -0 -0 -0 -0 -0 -0 -0 -0 -0 -0 -0 -0 -0 -0 -0 -0 -0 -0 -0 -0 -0 -2 -0 -0 -4 nan nan nan -0 -0 -0 -0 -0 -0 -0 -0 -0 -0 -0 -0 -0 -0 -0 -0 -0 -0 -0 -0 -0 -0 -0 -0 -0 -0 -0 -1 nan nan nan nan nan nan nan nan nan nan nan nan nan nan nan nan nan nan nan nan
-0 -0 -0 -0 -0 nan nan -0 -0 -0 -0 -0 -0 -0 -0 -0 -0 -0 -0 -0 -0 -0 -0 -0 -0 -0 -0 -0 -0 -0 -0 -0 -1 -1 -6 nan nan nan nan -0 -0 -0 -0 -0 -0 -0 -0 -0 -0 -0 -0 -0 -0 -0 -0 -0 -0 -0 -0 -0 -0 -0 -0 -0 -0 -12 nan nan nan nan nan nan nan nan nan nan nan nan nan nan nan nan nan nan nan nan
-0 -0 -0 -0 -0 -0 -0 -0 -0 -0 -0 -0 -0 -0 -0 -0 -0 -0 -0 -0 -0 -0 -0 -0 -0 -0 -0 -0 -0 -0 -0 -3 -3 -3 -7 nan nan nan nan nan nan -0 -0 -0 -0 -0 -0 -0 -0 -0 -0 -0 -0 -0 -0 -0 -0 -0 -0 -0 -0 -0 -0 -0 -0 nan nan nan nan nan nan nan nan nan nan nan nan nan nan nan nan nan nan nan nan nan
-0 -0 -0 -0 -0 -0 -0 -0 -0 -0 -0 -0 -0 -0 -0 -0 -0 -0 -0 -0 -0 -0 -0 -0 -0 -0 -0 -0 -0 -0 -0 -0 -1 -1 -1 -4 -7 -7 nan -0 -0 -0 -0 -0 -0 -0 -0 -0 -0 -0 -0 -0 -0 -0 -0 -0 -0 -0 -0 -0 -0 -0 -0 -0 -0 nan nan nan nan nan nan nan nan nan nan nan nan nan nan nan nan nan nan nan nan nan
nan -0 -0 -0 -0 -0 -0 -0 -0 -0 -0 -0 -0 -0 -0 -0 -0 -0 -0 -0 -0 -0 -0 -0 -0 -0 -0 -0 -0 -0 -0 -0 -0 -0 -4 -0 -0 -0 -0 -0 -0 -0 -0 -0 -0 -0 -0 -0 -0 -0 -0 -0 -0 -0 -0 -0 -0 -0 -0 -0 -0 -0 -0 -0 -0 nan nan nan nan nan nan nan nan nan nan nan nan nan nan nan nan nan nan nan nan nan
-0 -0 -0 -0 -0 -0 -0 -0 -0 -0 -0 -0 -0 -0 -0 -0 -0 -0 -0 -0 -0 -0 -0 -0 -0 -0 -0 -0 -0 -0 -0 -0 -0 -0 -1 -5 -2 -2 -2 -0 -0 -0 -0 -0 -0 -0 -0 -0 -0 -0 -0 -0 -0 -0 -0 -0 -0 -0 -0 -0 -0 -0 -0 -0 -0 nan nan nan nan nan nan nan nan nan nan nan nan nan nan nan nan nan nan nan nan nan
-0 -0 -0 -0 -0 -0 -0 -0 -0 -0 -0 -0 -0 -0 -0 -0 -0 -0 -0 -0 -0 -0 -0 -0 -0 -0 -0 -0 -0 -0 -0 -0 -0 -0 -0 -0 -1 -1 -4 -2 -2 -0 -0 -0 -0 -0 -0 -0 -0 -0 -0 -0 -0 -0 -0 -0 -0 -0 -0 -0 -0 -0 -0 -0 -0 nan nan nan nan nan nan nan nan nan nan nan nan nan nan nan nan nan nan nan nan nan
-0 -0 -0 -0 -0 -0 -0 -0 -0 -0 -0 -0 -0 -0 -0 -0 -0 -0 -0 -0 -0 -0 -0 -0 -0 -0 -0 -0 -0 -0 -0 -0 -0 -0 -0 -0 -0 -0 -3 -3 -3 -2 -1 -0 -0 -0 -0 -0 -0 -0 -0 -0 -0 -0 -0 -0 -0 -0 -0 -0 -0 -0 -0 -0 -0 nan nan nan nan nan nan nan nan nan nan nan nan nan nan nan nan nan nan nan nan nan
-0 -0 -0 -0 -0 -0 -0 -0 -0 -0 -0 -0 -0 -0 -0 -0 -0 -0 -0 -0 -0 -0 -0 -0 -0 -0 -0 -0 -0 -0 -0 -0 -0 -0 -0 -0 -0 -0 -0 -0 -0 -0 -1 -4 -4 nan -0 -0 -0 -0 -0 -0 -0 -0 -0 -0 -0 -0 -0 -0 -0 -0 -0 -0 -0 nan nan nan nan nan nan nan nan nan nan nan nan nan nan nan nan nan nan nan nan nan
-0 -0 -0 -0 -0 -0 -0 -0 -0 -0 -0 -0 -0 -0 -0 -0 -0 -0 -0 -0 -0 -0 -0 -0 -0 -0 -0 -0 -0 -0 -0 -0 -0 -0 -0 -0 -0 -0 -0 -0 -0 -0 -0 -0 -0 -0 -0 -0 -0 -0 -0 -0 -0 -0 -0 -0 -0 -0 -0 -0 -0 -0 -0 nan nan nan nan nan -0 -0 -0 nan nan nan nan -0 -0 -0 nan nan nan nan nan nan nan nan
-0 -0 -0 -0 -0 -0 -0 -0 -0 -0 -0 -0 -0 -0 -0 -0 -0 -0 -0 -0 -0 -0 -0 -0 -0 -0 -0 -0 -0 -0 -0 -0 -0 -0 -0 -0 -0 -0 -0 -0 -0 -0 -0 -0 -0 -0 -0 -0 -0 -0 -0 -0 -0 -0 -0 -0 -0 -0 -0 -0 -0 nan -0 nan nan nan nan nan nan nan nan nan nan nan nan -0 nan nan nan nan nan nan nan nan nan nan
Wind_Speed
7 7 8 10 10 10 10 12 13 12 11 10 10 9 9 10 10 11 13 13 13 13 12 12 12 13 15 17 19 21 22 22 23 23 23 23 22 22 22 21 21 21 21 20 20 20 20 20 20 20 20 20 20 20 20 20 20 20 20 20 20 20 19 19 19 20 20 20 20 20 20 20 21 21 21 21 21 21 20 17 16 15 15 16 16 17
8 8 8 10 11 11 10 12 12 12 11 11 10 10 10 11 11 10 11 12 12 12 11 11 12 13 15 16 18 20 21 22 22 22 23 22 22 22 22 22 21 21 21 20 20 20 20 20 20 20 20 20 20 20 20 19 19 19 19 19 18 18 18 18 18 18 19 19 19 19 19 20 20 20 20 21 21 20 19 17 16 15 15 15 16 16
8 8 7 8 10 10 10 11 11 11 12 12 11 11 12 13 12 10 9 10 10 11 10 11 11 12 14 15 17 19 20 21 22 22 22 22 22 22 22 22 21 21 21 21 20 20 20 20 20 20 20 20 19 19 19 19 19 18 18 18 18 17 17 17 17 17 17 18 18 18 18 19 19 19 19 19 19 19 19 18 17 16 16 16 16 16
8 8 8 7 8 9 10 10 10 10 10 11 12 12 13 12 11 10 9 10 10 10 10 11 12 12 12 12 14 17 19 20 21 22 22 22 22 22 22 22 22 21 21 21 21 20 20 20 20 20 20 20 19 19 19 19 18 18 18 18 17 17 17 17 17 17 17 17 17 18 18 18 18 18 18 18 18 18 18 17 17 17 16 16 16 16
8 8 8 7 8 8 9 10 10 10 9 10 10 11 11 10 9 9 9 10 10 10 10 11 11 11 10 10 12 15 19 20 21 22 22 22 22 22 22 22 22 21 21 21 20 20 20 20 20 20 19 19 19 19 19 18 18 18 18 18 18 18 18 18 18 18 18 18 18 18 18 18 18 18 18 18 18 17 17 17 17 17 17 16 16 16
8 8 8 7 7 7 8 8 8 8 9 9 9 10 10 9 9 9 9 9 10 10 9 9 10 11 11 11 13 15 18 19 21 21 22 22 22 22 22 21 21 21 21 20 20 20 20 20 19 19 19 19 19 19 18 18 18 18 18 18 18 18 18 18 18 18 18 18 18 18 18 18 18 18 18 18 17 17 17 17 17 17 17 17 17 17
8 8 8 8 7 7 7 7 8 8 8 8 8 8 8 8 9 9 9 9 9 9 9 9 9 10 11 12 13 15 16 17 18 19 20 20 20 20 20 20 20 20 20 20 20 20 19 19 19 19 19 19 18 18 18 18 18 18 18 18 17 17 17 17 17 17 17 17 17 17 18 18 18 18 18 18 18 17 17 17 17 17 17 18 18 18
9 8 8 8 7 7 7 7 8 8 8 7 7 7 8 8 8 9 10 10 10 9 9 9 9 9 10 10 11 12 12 13 13 14 15 16 17 17 18 18 19 19 19 19 19 19 19 19 19 19 19 18 18 18 18 17 17 17 17 17 17 17 17 16 16 16 16 16 16 17 17 17 17 17 17 18 18 18 17 18 18 18 18 18 19 19
10 10 9 9 8 8 7 7 8 8 8 7 7 7 8 9 9 9 9 9 9 8 8 8 9 9 9 10 10 10 10 10 10 10 11 11 12 13 15 16 17 18 18 19 19 19 19 19 19 19 19 18 18 18 17 17 17 17 16 16 16 16 16 15 15 15 15 16 16 16 16 16 16 16 17 17 17 18 18 18 18 18 19 19 19 20
11 11 10 9 8 7 7 8 8 8 9 8 7 7 8 9 9 9 9 9 8 8 7 8 9 9 9 9 9 9 9 10 11 12 13 13 14 15 15 15 15 16 18 18 19 19 19 19 19 19 19 18 18 18 17 17 16 16 16 15 15 15 15 15 15 15 15 15 15 15 15 15 16 16 16 16 17 17 17 18 18 18 19 19 19 20
10 10 9 8 7 7 7 8 8 8 8 8 7 7 7 8 8 8 9 9 9 8 7 7 8 8 9 8 8 8 8 9 9 11 12 14 15 16 16 16 16 16 18 18 18 19 19 19 19 19 18 18 18 17 17 16 16 16 15 15 15 14 14 14 14 14 14 15 15 15 15 15 15 16 16 16 16 16 17 17 17 18 18 19 19 19
9 8 7 6 6 6 7 7 7 7 6 6 7 7 7 7 7 7 8 9 9 9 9 8 7 8 8 8 8 8 8 8 8 8 8 9 10 11 11 11 12 13 14 15 15 16 17 17 17 17 17 17 17 17 17 16 16 15 15 15 15 14 14 14 14 14 14 15 15 15 15 15 15 16 16 16 16 16 16 16 17 17 17 18 18 19
7 6 5 6 6 6 6 6 6 6 6 6 7 7 7 6 6 6 6 8 9 9 9 8 8 8 8 8 8 7 7 7 7 7 7 7 7 7 7 7 7 8 8 9 9 10 13 14 15 15 15 16 16 16 16 16 16 16 16 15 15 15 15 15 14 14 14 15 15 15 15 15 15 16 16 16 16 16 16 16 16 17 17 17 17 18
6 5 5 6 6 6 6 6 7 7 7 7 7 7 7 6 6 6 7 8 9 9 8 8 8 8 7 8 8 7 7 7 7 7 7 7 6 6 6 6 6 7 7 7 7 8 9 10 10 11 13 14 14 15 15 15 16 16 16 16 16 16 15 15 15 15 15 15 15 15 15 15 15 15 16 16 16 16 16 16 16 16 17 17 17 17
5 5 6 6 6 5 6 7 7 7 7 7 7 7 7 7 7 7 8 8 8 8 7 8 8 8 6 6 6 7 7 6 6 6 7 7 6 6 6 6 6 6 6 7 7 8 9 8 8 8 9 11 12 13 14 15 16 17 17 17 17 16 16 16 15 15 15 15 15 15 15 15 15 16 16 16 16 16 16 16 16 16 17 17 17 17
6 7 8 8 8 7 7 7 6 6 6 6 6 7 7 7 7 7 8 8 8 6 6 6 7 7 6 6 6 6 6 5 5 6 7 7 7 6 6 6 6 7 7 7 7 7 7 7 7 8 8 11 13 14 15 16 17 17 17 18 17 17 17 16 15 15 15 15 15 15 15 15 16 16 16 16 16 16 16 16 16 17 17 17 17 17
8 9 9 9 8 8 7 6 5 6 6 6 6 7 7 7 7 6 6 6 5 4 4 5 5 5 4 4 4 4 3 3 4 5 7 8 8 7 6 6 6 7 7 7 7 7 7 7 7 7 7 10 13 15 16 17 17 18 18 18 18 17 17 16 16 15 15 15 15 15 15 15 16 16 16 16 17 17 17 17 17 17 17 17 17 18
8 7 7 7 7 7 6 6 6 6 6 6 6 6 7 7 6 6 5 5 5 5 5 5 4 4 4 4 3 3 3 4 5 6 7 8 8 7 6 5 6 7 8 8 8 7 7 7 7 7 8 11 14 15 16 17 18 18 18 18 18 18 17 17 16 15 15 15 15 15 15 16 16 16 16 17 17 17 17 17 17 17 17 17 18 18
7 7 7 8 8 7 6 6 6 6 6 6 6 6 7 7 6 6 6 6 6 6 6 6 5 4 3 4 4 5 5 5 6 7 7 8 8 8 7 6 6 7 8 8 8 8 7 7 8 10 11 13 15 16 17 18 18 18 19 19 18 18 18 17 16 16 15 15 15 15 15 16 16 16 16 17 17 17 17 17 17 17 17 17 18 18
9 9 8 8 8 7 6 5 6 6 6 6 7 7 7 7 7 7 7 7 7 6 6 6 5 4 3 4 5 6 6 6 6 6 7 8 9 8 8 7 7 8 8 8 8 7 7 7 8 9 11 13 15 16 17 18 18 19 19 19 19 18 18 17 17 16 16 15 15 15 16 16 16 16 16 16 17 17 17 17 17 17 17 17 18 18
9 8 7 7 7 7 6 6 6 7 8 8 8 8 8 8 8 8 7 6 6 6 5 4 4 4 4 5 6 7 7 7 6 5 5 6 7 8 7 7 7 8 9 8 8 7 7 7 7 7 8 11 14 15 16 17 18 18 19 19 19 18 18 18 17 16 16 15 15 15 16 16 16 16 16 16 16 17 17 17 17 17 17 17 17 18
9 8 8 7 8 8 8 7 8 9 10 10 9 8 8 8 8 8 7 6 5 4 3 3 4 5 6 6 7 7 7 6 6 5 4 5 7 8 7 6 7 8 9 8 8 7 7 6 6 6 8 11 13 15 16 17 18 18 18 18 18 18 18 18 17 17 16 16 16 16 16 16 16 16 16 16 16 16 16 17 17 17 17 17 17 17
9 9 9 9 9 9 9 8 8 8 9 9 9 8 6 7 7 6 5 4 4 4 4 5 6 7 7 7 7 7 7 6 5 5 4 6 7 8 6 6 7 8 8 8 8 7 7 6 6 7 8 11 13 15 16 17 17 18 18 18 18 18 18 18 17 17 16 16 16 16 16 16 16 16 16 16 16 16 16 16 16 17 17 17 17 17
10 10 10 9 9 8 8 8 7 7 7 7 7 6 6 5 5 4 4 4 4 5 5 6 7 7 7 7 7 6 6 5 5 4 4 5 6 7 6 6 7 8 9 8 8 8 8 7 7 7 7 10 12 14 15 16 17 17 18 18 18 18 18 18 18 17 16 16 16 16 16 16 16 16 16 16 16 16 16 16 16 16 16 17 17 17
9 9 9 9 10 10 11 10 10 9 8 7 6 5 4 4 4 4 4 5 5 5 6 6 7 7 6 6 6 6 5 4 4 4 4 4 6 7 6 6 7 8 9 8 8 8 8 8 7 7 7 8 11 13 14 16 16 17 17 17 18 18 19 18 18 17 17 16 16 16 16 16 16 16 16 16 16 16 16 16 16 16 16 16 16 17
13 13 13 15 17 19 20 19 18 16 14 10 7 5 4 4 4 5 5 5 5 5 6 7 7 7 6 5 5 5 4 4 4 4 4 4 5 6 6 6 7 8 9 8 8 8 8 8 8 7 7 7 9 11 13 15 16 16 17 17 18 18 19 18 18 17 17 16 16 16 16 16 16 16 15 15 15 15 15 15 15 15 15 16 15 15
21 22 23 23 23 23 23 21 19 17 16 13 11 9 7 6 5 6 6 5 5 5 6 7 7 7 7 6 5 5 4 3 3 4 4 5 6 7 6 6 6 7 8 7 7 7 8 8 8 8 7 6 6 8 12 14 15 16 17 17 18 18 19 18 18 17 17 16 16 16 16 16 15 15 15 15 15 15 15 15 15 15 15 14 13 12
23 23 23 23 22 21 19 16 14 12 12 13 14 13 10 6 5 6 7 6 6 6 7 7 8 7 6 6 6 5 5 4 4 4 4 4 5 6 6 5 4 5 5 6 7 7 9 9 9 9 8 7 6 7 9 12 14 15 16 17 17 18 18 18 17 17 16 16 16 16 15 15 15 15 14 14 14 14 14 14 14 14 13 11 9 7
19 20 20 19 18 16 13 10 9 9 10 11 11 10 7 4 4 5 6 5 5 6 7 7 7 7 7 7 6 6 5 5 5 5 4 4 5 5 5 4 4 4 5 5 6 7 8 8 8 8 8 8 6 6 6 9 10 12 13 15 15 16 16 16 16 16 16 15 15 15 15 15 14 14 14 14 13 13 13 14 13 12 10 8 6 6
12 12 12 11 10 10 8 7 7 8 9 9 9 8 5 3 3 4 4 4 5 6 7 7 7 7 6 6 6 6 5 4 3 2 2 4 4 4 4 5 5 5 5 5 5 5 6 6 6 6 6 6 5 4 4 5 6 6 8 10 11 12 14 14 15 15 15 15 14 14 14 14 14 13 13 13 13 13 13 13 12 9 6 6 5 5
7 6 5 6 6 7 7 7 7 7 8 8 7 6 4 3 3 3 4 4 4 5 6 7 7 7 6 6 5 5 4 3 2 1 2 3 4 5 5 6 6 6 5 5 4 5 5 4 3 3 2 3 3 3 3 3 3 4 4 5 6 8 11 12 13 13 13 13 13 13 13 13 13 13 12 12 12 12 12 12 10 8 6 5 5 5
4 4 4 4 5 5 5 6 6 6 5 5 4 4 4 3 3 3 3 4 4 5 6 6 7 7 6 6 5 5 4 4 4 4 4 4 4 5 5 6 6 6 5 5 5 4 4 3 3 2 3 3 3 3 3 3 3 4 4 4 5 6 9 10 11 11 11 11 12 12 12 12 12 12 12 11 11 11 11 11 10 8 6 5 5 5
3 3 3 4 4 4 4 5 5 5 4 4 3 3 3 3 3 4 4 4 4 4 5 6 6 6 6 6 6 6 5 5 5 6 6 5 4 4 4 5 6 5 4 4 5 5 5 4 4 4 5 5 5 5 4 4 4 4 4 5 5 5 7 8 8 8 8 8 9 9 10 11 11 11 11 10 10 10 10 9 9 8 6 5 4 5
4 4 4 4 4 4 5 5 5 4 4 3 3 3 3 3 3 4 4 4 4 4 5 5 6 6 6 6 6 6 6 5 6 6 6 5 4 4 5 5 6 6 5 5 5 5 5 6 5 5 5 5 5 5 5 4 4 4 4 4 5 5 5 6 6 6 6 6 6 6 6 7 8 8 8 8 8 8 8 8 8 7 7 6 5 5
5 5 5 5 5 5 5 5 5 4 4 4 3 3 3 3 3 4 4 4 4 4 4 5 5 5 6 6 6 6 6 6 6 7 6 6 5 5 5 6 6 6 6 6 6 5 5 6 6 6 5 5 5 5 5 5 4 4 3 4 5 5 5 5 5 5 5 5 4 4 4 4 5 5 6 6 6 7 7 7 7 7 8 7 7 6
5 5 5 5 5 5 5 5 4 4 4 3 3 3 3 3 4 4 4 4 5 5 5 5 5 6 6 6 6 7 7 7 7 7 7 6 5 5 5 5 6 6 6 7 6 6 5 6 6 7 7 6 5 5 5 4 4 3 3 4 4 5 5 5 5 4 4 4 4 4 4 4 4 4 4 5 6 6 6 7 7 7 7 8 7 7
5 5 5 5 4 4 4 4 4 4 4 4 3 3 4 4 4 4 4 4 5 5 6 6 6 7 7 7 7 7 7 7 7 8 8 7 6 6 5 5 6 6 6 7 6 6 6 6 7 7 6 6 5 5 4 5 5 5 5 4 4 4 4 4 4 4 4 5 5 5 4 4 4 4 4 5 5 5 6 6 6 6 6 7 7 7
5 5 5 5 4 4 3 3 4 4 4 4 4 4 4 5 5 5 5 5 5 6 6 5 6 7 9 9 9 9 9 9 10 10 10 9 7 7 6 6 6 6 6 6 6 6 6 7 7 6 5 6 6 6 6 6 6 6 6 5 5 4 5 4 4 4 4 5 5 5 5 5 4 4 3 3 3 3 3 4 4 4 5 5 5 6
5 5 5 5 4 4 3 4 4 4 4 5 5 5 5 5 5 5 5 5 5 6 6 6 6 6 8 9 10 11 11 11 11 11 10 9 8 7 7 7 7 7 7 6 6 6 7 6 6 6 6 6 6 6 6 6 6 6 7 6 6 5 5 5 5 4 4 5 5 6 6 5 4 3 3 2 2 2 3 3 3 2 2 2 3 5
5 5 5 5 5 4 4 5 5 5 5 5 5 5 5 5 5 5 5 5 5 6 7 7 7 6 7 8 9 10 10 9 9 10 9 8 8 7 7 7 7 7 7 6 6 6 7 7 7 7 7 6 6 6 6 6 6 6 7 6 5 5 6 5 5 5 4 5 5 5 5 4 3 3 3 2 2 2 3 2 2 2 1 1 2 3
5 5 5 5 5 5 5 5 5 5 5 5 4 4 4 4 4 4 4 5 5 5 5 6 6 6 6 7 7 8 9 9 9 9 8 8 8 8 7 7 7 7 7 7 7 7 7 7 8 8 8 8 8 8 8 7 7 8 8 6 6 6 6 6 5 4 4 4 4 5 5 4 4 3 3 3 2 2 2 2 2 2 2 1 2 2
5 5 5 5 5 5 5 5 5 5 5 4 4 4 4 4 4 4 5 5 5 4 4 4 5 5 6 6 7 7 7 7 8 8 8 9 8 8 7 7 7 7 7 7 7 7 7 7 8 8 8 8 7 7 7 7 8 8 8 7 7 7 7 6 4 3 3 3 4 4 5 4 4 3 3 2 2 1 1 2 2 3 3 2 2 2
4 5 5 5 5 5 5 5 5 4 4 4 4 4 4 4 4 5 5 5 5 5 5 5 5 5 6 6 6 6 5 5 6 7 7 7 7 8 7 8 7 7 7 7 7 7 8 8 8 8 8 7 7 7 7 7 8 8 8 8 7 6 4 3 2 1 2 3 3 3 4 4 3 2 2 1 1 1 1 2 3 3 3 2 2 2
5 5 5 5 5 5 5 4 4 4 4 4 5 5 5 5 5 5 5 5 5 5 5 5 5 6 6 6 6 6 5 5 5 5 6 6 7 7 7 8 8 8 7 7 6 6 7 7 7 7 7 7 7 7 7 7 7 7 7 7 7 6 5 4 2 1 2 3 3 3 3 3 2 1 1 1 1 1 1 2 2 3 3 2 2 2
5 5 5 4 4 4 4 4 4 4 4 4 5 5 5 5 5 5 5 5 5 5 5 5 5 5 5 5 6 6 5 5 5 5 5 6 8 9 8 8 8 8 8 7 7 7 6 6 6 6 6 6 6 7 7 7 7 7 7 7 7 7 7 6 4 3 2 3 2 2 2 2 2 2 1 1 1 1 1 2 2 2 2 2 2 2
4 4 5 4 4 4 4 4 4 4 4 5 5 5 5 5 5 5 5 5 5 5 5 5 5 5 5 5 6 6 6 6 6 5 5 5 5 6 6 6 7 7 6 7 7 7 7 6 6 6 5 6 6 7 7 7 7 7 7 7 7 6 6 6 4 3 2 2 2 2 2 2 2 2 2 1 1 1 1 1 1 1 1 1 2 2
5 5 5 4 4 4 4 4 4 4 5 5 5 5 5 5 5 5 4 4 4 5 5 5 5 5 5 6 6 6 6 7 7 6 6 5 5 5 4 5 6 6 6 6 7 7 7 7 7 6 6 6 6 6 7 7 7 7 7 6 6 6 6 5 3 1 1 1 1 2 2 2 2 2 1 1 0 0 0 0 0 1 1 1 2 2
5 5 5 4 4 4 4 4 4 5 5 5 5 5 5 5 4 4 4 4 4 5 5 5 5 5 5 5 6 6 6 7 7 6 6 6 6 6 5 5 5 5 6 6 7 7 7 8 8 8 7 6 6 6 7 7 7 6 6 6 5 5 6 4 2 0 0 1 1 2 2 2 2 2 1 1 0 0 1 1 1 1 1 1 2 2
5 5 5 5 5 5 5 5 5 5 5 5 6 5 5 4 3 4 3 4 4 4 4 5 5 6 6 6 6 6 7 7 6 6 6 6 6 6 6 6 6 6 5 5 5 5 6 7 8 9 8 7 7 7 7 7 6 6 5 5 4 4 4 3 1 1 1 1 1 2 2 1 1 1 1 1 1 0 1 1 1 1 1 1 2 2
5 5 5 5 5 5 5 5 5 5 5 6 6 5 4 2 2 3 3 4 4 5 5 5 6 6 6 6 6 6 6 6 6 6 6 5 6 6 6 7 7 7 7 5 4 3 3 4 5 7 9 10 9 8 7 6 6 5 4 4 3 3 3 2 0 1 1 1 1 1 1 1 1 1 1 1 1 0 0 1 1 1 1 1 1 2
5 5 5 5 5 5 5 5 5 5 6 6 6 5 3 2 2 3 4 4 5 5 5 6 6 6 6 6 6 6 6 6 6 6 6 6 6 6 6 7 7 7 7 6 5 4 3 2 2 3 5 8 9 9 6 5 5 4 3 2 2 2 1 1 0 1 1 1 1 1 1 1 1 1 1 1 1 0 0 1 1 1 1 1 2 3
Wind_Direction
287 290 292 291 291 289 287 287 287 287 286 286 287 288 289 289 288 287 288 288 288 287 287 286 286 287 288 289 289 290 291 292 293 293 293 293 293 293 293 292 292 291 290 289 289 288 287 285 284 283 282 281 281 280 280 280 280 280 280 279 279 279 279 279 279 279 278 278 278 277 277 277 277 277 278 278 279 279 280 281 280 277 275 273 272 271
287 288 288 289 289 287 285 285 285 284 285 285 286 287 288 289 289 289 289 287 286 286 285 285 286 286 287 287 288 289 289 290 291 292 292 292 292 292 292 291 291 291 290 289 289 288 287 286 285 285 284 283 282 281 281 281 281 281 281 280 280 280 280 280 279 279 278 278 277 277 277 277 277 277 278 278 279 281 283 285 283 280 277 275 274 273
290 288 286 287 286 285 285 286 285 284 283 284 284 285 287 288 288 288 288 288 287 285 284 284 285 286 287 287 287 288 288 289 290 290 290 291 291 291 291 291 290 290 290 290 289 289 288 288 287 286 285 284 283 283 282 281 281 281 280 280 279 279 278 278 277 277 276 276 276 275 275 275 276 276 277 278 279 280 282 284 283 282 281 280 279 278
287 287 287 286 284 282 282 285 285 284 282 282 282 283 284 284 284 283 283 284 285 285 285 285 285 285 286 286 285 286 287 287 288 289 289 289 289 290 290 290 290 290 290 290 290 289 289 288 288 287 286 285 284 283 282 281 280 279 279 278 277 276 275 275 274 273 273 273 273 273 273 274 274 275 275 276 277 278 279 280 281 281 281 280 279 278
282 283 285 286 284 282 282 283 284 284 282 281 281 281 280 279 278 280 281 283 285 286 286 286 285 284 284 283 284 285 286 286 287 287 288 288 288 289 289 289 289 290 290 289 289 289 288 288 287 287 286 284 283 282 280 279 278 277 276 276 275 274 273 272 272 271 271 271 271 271 272 272 272 273 274 274 275 275 275 276 277 277 278 277 276 275
279 279 281 281 281 281 283 283 284 284 284 282 280 279 278 277 278 280 282 284 284 285 285 284 284 284 282 282 283 284 285 285 286 286 286 287 287 287 287 288 288 288 288 288 288 287 287 286 286 285 284 283 281 280 279 278 277 276 275 275 274 273 273 272 272 272 272 272 272 271 271 271 272 272 272 273 273 273 273 273 274 274 274 274 274 273
277 276 278 277 277 278 280 280 281 282 282 282 281 280 279 279 279 280 280 281 282 283 283 283 283 282 282 281 282 283 284 284 285 285 285 285 285 285 285 286 286 286 286 286 285 285 284 284 283 283 282 281 281 280 279 278 278 277 277 276 276 276 275 275 275 275 275 275 275 274 273 273 273 272 272 273 272 272 272 271 271 271 272 272 272 272
277 276 274 276 276 276 274 274 275 277 278 280 283 284 285 284 282 281 281 281 281 282 283 283 283 282 281 282 283 283 283 284 285 285 285 284 284 284 284 284 284 284 284 284 283 283 283 283 282 282 282 282 282 281 281 280 280 280 279 279 279 280 280 280 280 280 280 280 279 279 278 277 276 275 274 274 273 273 272 271 271 271 270 270 271 271
275 276 274 273 274 276 276 273 273 275 278 279 281 283 287 287 287 286 286 284 283 282 282 283 284 284 284 285 285 284 283 283 284 284 285 285 285 285 284 285 285 284 284 284 284 284 283 283 283 283 283 283 283 282 282 281 281 281 281 281 282 282 282 283 283 283 284 283 282 282 281 280 280 279 277 277 276 275 274 273 272 271 271 271 271 271
270 272 273 271 270 270 274 275 275 275 277 277 277 277 280 284 286 288 288 286 284 282 280 280 282 284 286 286 286 285 284 282 281 281 282 283 284 285 286 286 286 285 285 285 284 284 284 283 283 283 283 283 282 282 281 281 280 280 280 280 280 280 281 281 282 282 282 282 282 281 281 281 280 280 279 278 278 277 276 275 274 273 273 272 272 272
266 266 268 268 266 264 264 269 273 275 275 274 272 269 268 272 277 281 284 284 284 283 280 278 279 282 286 288 288 288 287 285 284 282 282 282 282 283 283 282 282 283 283 283 283 282 282 282 282 282 281 281 281 280 279 278 277 277 276 276 276 276 276 277 277 278 278 279 279 279 279 279 279 278 278 278 277 277 276 276 275 275 274 273 273 273
264 264 264 264 264 264 263 266 269 272 272 270 269 267 264 263 265 270 275 279 283 285 284 282 280 280 283 287 289 290 288 287 286 286 285 283 282 281 280 280 279 279 280 280 280 279 279 279 279 279 279 278 278 277 276 276 275 274 273 273 273 273 273 274 275 275 276 277 277 277 277 277 277 277 277 276 276 276 275 275 275 274 274 273 273 272
262 263 263 263 263 263 265 268 270 269 267 266 267 268 269 268 268 269 271 275 279 283 285 285 284 282 282 283 285 286 286 285 285 286 286 284 282 280 278 277 277 277 277 277 276 275 276 276 276 275 275 274 274 274 274 273 273 273 272 272 272 272 272 273 273 274 275 275 276 276 276 276 276 276 275 275 275 274 274 274 273 273 273 272 272 271
264 263 260 259 259 261 265 268 270 269 268 266 267 269 275 280 281 281 278 277 278 280 282 283 284 284 283 281 280 280 281 282 284 285 285 284 284 282 280 277 275 274 274 274 273 272 272 273 273 273 272 271 272 272 272 272 272 272 272 272 272 272 272 272 272 273 274 275 275 275 275 275 275 274 274 273 273 273 273 272 272 272 271 271 270 270
276 277 275 273 272 271 272 272 270 268 267 267 269 275 282 286 287 286 282 280 279 280 281 282 283 284 284 282 280 279 279 280 283 286 289 290 289 288 284 279 275 273 271 271 271 272 272 271 272 272 272 271 270 271 271 272 272 272 272 272 272 271 271 271 271 272 273 274 274 274 275 274 273 273 272 271 271 271 271 270 270 270 270 269 269 269
292 291 290 287 284 279 276 274 271 268 267 271 277 283 289 289 288 285 282 281 282 282 281 283 284 284 281 276 274 275 278 284 289 293 296 296 295 293 288 281 277 275 272 270 270 271 272 271 270 270 271 270 269 269 269 270 271 271 271 271 271 271 270 270 270 271 271 272 273 273 273 273 272 271 270 270 269 269 269 268 268 268 268 268 268 268
281 280 279 278 278 277 278 274 269 268 273 280 286 290 291 288 286 282 278 277 277 275 272 275 278 279 279 275 273 276 291 300 302 301 299 296 296 295 289 281 277 277 276 274 272 272 272 271 269 267 266 266 267 267 268 268 269 269 270 270 270 270 270 269 269 270 271 272 272 272 272 272 271 270 269 269 268 268 267 267 267 267 267 267 267 268
266 268 272 275 277 278 277 272 269 271 278 285 289 289 288 285 282 278 273 270 269 268 267 265 265 267 272 278 286 301 324 314 306 301 298 296 296 296 293 282 275 274 276 275 274 272 272 271 270 268 266 266 267 267 268 268 269 269 270 270 270 270 270 270 270 270 271 272 272 272 272 272 271 270 270 269 268 268 267 267 266 266 266 267 267 268
268 269 272 274 274 273 270 268 272 277 284 286 289 290 289 287 282 276 270 268 267 266 267 266 263 260 263 278 295 309 318 313 308 303 299 297 297 298 298 287 277 272 272 272 272 271 270 269 268 268 268 268 268 268 269 269 270 270 270 271 271 271 271 271 271 272 272 273 273 273 273 273 272 271 271 270 269 269 268 268 267 267 267 267 268 268
277 272 268 271 274 275 273 272 275 280 284 286 289 290 289 287 281 273 266 266 265 264 264 263 263 266 279 293 301 306 311 311 307 302 298 296 296 297 298 292 285 278 274 272 271 270 270 269 269 268 267 267 268 268 269 269 270 270 271 271 271 272 272 272 272 273 273 274 274 274 274 273 272 272 271 271 270 270 269 269 269 268 268 268 268 269
286 283 280 282 283 283 280 275 273 275 280 286 289 289 286 281 274 268 263 263 263 263 261 262 273 288 302 301 301 302 306 307 305 301 297 293 292 292 294 292 287 282 279 277 276 274 271 270 269 268 266 266 267 267 268 269 269 270 270 271 271 272 272 272 273 273 274 275 275 274 274 273 272 271 271 271 270 270 270 270 269 269 269 268 268 269
281 282 282 280 277 274 272 270 269 271 277 282 283 280 277 274 271 270 270 272 272 273 274 287 299 304 302 296 294 294 297 297 296 295 293 288 287 287 292 291 288 284 282 282 281 279 276 273 271 268 267 266 266 266 267 267 268 268 269 269 270 271 272 272 273 274 275 275 275 275 274 273 272 271 271 270 270 270 270 270 269 269 269 269 269 270
267 270 274 271 268 265 266 267 268 271 275 278 277 275 275 276 280 287 297 300 302 304 307 306 302 297 292 287 285 285 287 287 287 286 285 282 285 288 293 293 290 287 285 287 289 289 286 281 277 274 271 267 266 266 266 266 266 267 267 268 269 270 272 273 274 276 276 277 276 275 274 272 271 270 270 269 269 269 269 269 269 269 269 269 270 271
261 265 269 268 266 264 266 268 270 272 277 278 280 282 284 289 296 304 311 307 302 300 298 296 292 288 283 281 280 280 282 285 285 282 277 278 281 286 293 294 292 288 286 289 291 293 292 287 282 278 276 268 265 264 264 264 264 265 265 267 268 270 272 274 276 277 277 277 276 275 273 272 271 270 269 269 269 269 269 269 269 269 269 270 270 271
263 265 266 264 263 264 268 270 275 279 285 285 286 289 294 294 291 285 280 281 284 287 288 288 286 284 282 282 280 279 280 282 281 279 278 278 281 285 291 292 291 288 287 289 291 292 291 288 286 282 278 269 264 261 260 260 261 261 263 265 267 270 272 274 276 278 278 277 276 275 273 272 270 269 269 268 268 268 268 268 268 269 269 270 271 272
271 270 269 269 271 274 278 282 286 291 297 299 301 304 306 301 294 288 285 283 285 289 292 289 287 285 285 283 280 279 280 279 279 280 284 286 287 288 289 289 287 286 287 290 291 292 291 290 288 286 280 270 262 258 256 256 256 257 259 262 265 268 271 274 276 277 277 276 275 274 272 271 270 269 268 268 267 267 267 267 268 268 269 270 272 273
275 275 275 277 280 283 287 292 297 303 309 313 318 322 323 321 313 304 298 299 302 302 298 294 291 290 289 285 283 283 288 288 288 289 292 290 287 286 286 286 287 288 291 294 297 299 298 296 294 291 287 278 267 257 252 251 252 253 256 259 263 267 270 273 275 277 276 275 274 273 271 270 269 268 267 267 267 267 267 267 267 268 269 270 272 274
273 275 277 280 283 287 290 296 305 313 316 318 320 322 324 325 316 307 303 310 311 307 297 292 292 292 293 291 291 292 294 290 287 286 286 281 278 278 282 288 294 300 303 303 303 302 299 295 292 291 288 282 271 257 249 248 249 251 254 258 262 265 269 272 274 275 275 275 273 272 270 269 268 266 266 265 265 265 265 266 266 267 269 270 270 272
272 275 278 282 286 290 295 302 308 308 306 306 309 313 319 319 310 304 305 313 310 301 291 289 289 291 292 293 292 291 286 280 277 276 274 270 269 273 283 292 300 307 310 305 300 295 289 285 284 283 284 282 275 263 253 248 248 251 254 258 262 265 269 271 273 274 274 274 273 271 270 268 266 265 264 263 263 263 264 265 266 267 268 268 268 269
276 281 286 293 300 306 313 312 305 297 293 294 298 303 310 306 296 294 300 304 300 294 289 289 289 289 290 292 290 286 278 275 273 274 274 274 277 282 293 296 300 303 306 302 296 290 283 279 277 279 284 290 289 283 269 258 256 257 259 261 264 267 269 271 272 273 273 272 271 270 269 267 265 264 262 262 261 262 262 264 264 265 265 263 263 264
297 304 312 319 323 322 319 309 300 292 289 292 296 301 304 295 286 286 291 294 291 288 287 287 287 287 288 289 288 285 282 286 296 310 307 290 287 290 295 294 294 293 292 288 285 285 285 281 279 287 307 311 309 300 288 277 270 267 266 267 268 268 268 269 269 270 270 269 268 267 266 265 263 262 261 260 260 260 261 262 262 263 262 261 261 263
312 312 309 311 311 308 301 294 288 285 285 290 292 292 290 287 284 283 284 284 283 283 284 285 285 285 283 280 279 280 285 292 299 303 303 291 285 284 285 283 282 281 277 269 271 279 289 294 304 317 323 315 309 303 296 286 278 271 267 266 266 266 265 265 265 265 264 264 263 262 261 261 260 259 259 258 258 259 259 260 261 261 262 263 264 266
294 287 285 288 288 285 279 276 275 276 278 280 279 276 275 275 276 277 277 276 276 277 280 282 283 282 280 277 274 275 278 284 289 292 292 285 280 278 277 274 274 274 273 268 271 279 288 295 300 302 302 299 298 296 293 285 278 272 268 265 264 263 262 261 261 260 258 258 258 257 257 257 258 257 257 258 258 258 259 260 261 261 262 263 265 268
293 291 290 288 284 278 272 269 269 269 271 270 267 265 262 263 267 271 274 273 271 271 272 275 278 279 280 278 276 275 276 280 286 290 293 288 285 286 288 285 285 285 285 281 279 280 280 281 285 289 291 291 289 288 286 283 281 278 274 271 269 267 265 261 259 257 255 254 253 254 254 256 256 256 256 257 258 259 260 260 261 262 262 262 264 268
296 294 293 288 282 276 272 268 266 264 263 260 260 260 263 265 268 271 274 274 272 269 267 266 268 271 275 278 279 281 282 286 293 298 300 294 292 292 292 289 290 291 289 285 282 280 277 277 279 282 286 288 288 286 285 285 285 285 280 273 270 269 268 265 263 262 260 257 254 252 250 251 251 252 253 255 256 258 260 261 261 262 263 264 267 270
295 292 289 282 276 271 269 268 267 266 267 265 263 264 268 271 274 274 274 275 275 273 270 265 263 263 266 271 276 280 284 289 293 295 294 289 285 283 283 283 284 285 284 282 281 280 280 280 279 279 281 283 284 285 285 285 284 280 275 269 266 265 265 265 265 265 265 262 257 253 248 246 244 245 246 250 254 257 260 262 263 264 267 269 273 276
290 287 283 276 270 267 269 269 271 274 280 282 282 282 282 281 281 280 279 276 274 273 273 271 268 265 264 267 269 273 279 283 285 284 282 279 277 275 275 277 279 280 280 281 283 284 283 282 281 279 277 277 279 283 287 287 285 282 279 276 274 272 269 266 262 261 263 262 260 257 251 246 242 240 241 246 251 256 261 264 265 268 271 275 278 281
288 285 283 276 270 268 273 279 285 290 295 298 298 297 294 291 288 286 283 277 273 271 271 270 268 266 264 264 264 266 269 271 274 274 273 272 271 270 271 274 275 275 276 280 284 286 285 283 282 281 279 276 277 279 283 286 286 285 284 282 279 275 271 265 259 255 255 258 260 260 257 250 243 239 237 239 242 247 255 258 261 265 272 277 281 284
287 284 283 283 285 289 294 297 299 300 301 299 299 298 297 294 291 287 283 278 273 269 267 267 267 266 263 262 263 264 265 266 268 268 268 266 266 267 269 272 274 275 275 277 278 279 278 278 278 278 279 279 278 278 277 278 279 281 283 281 275 266 258 252 247 244 245 250 255 258 258 252 243 234 227 223 224 231 243 248 251 255 266 279 286 289
286 286 289 296 303 309 308 303 300 299 296 294 295 296 297 297 296 291 284 279 276 275 273 272 271 270 267 265 265 265 265 265 265 266 265 262 261 263 267 269 271 273 272 270 269 269 269 270 271 272 274 276 278 279 277 275 275 277 279 280 276 268 260 250 242 236 236 240 247 252 254 248 237 226 219 216 220 230 241 248 254 262 271 286 295 297
288 293 299 306 307 303 296 294 293 291 289 290 293 297 299 300 299 295 289 286 284 283 285 283 279 275 272 268 266 265 263 262 262 263 262 259 257 258 261 264 267 268 268 265 262 261 260 263 266 268 269 272 275 277 278 279 280 281 280 278 279 280 278 266 254 241 232 238 242 247 250 245 235 223 218 218 222 230 248 261 268 272 274 273 278 286
295 301 305 304 300 295 291 289 288 287 288 292 298 302 303 301 300 299 298 297 295 292 289 288 287 285 284 280 275 269 264 261 260 260 260 258 255 253 255 258 261 264 265 263 260 257 254 256 258 262 265 268 272 275 278 280 282 283 283 282 284 286 284 275 263 244 230 239 243 246 248 244 236 225 217 216 214 218 253 263 265 264 264 259 257 261
302 302 300 298 295 291 289 288 288 291 299 305 308 308 304 298 296 296 297 297 297 297 296 295 294 294 293 291 289 285 277 267 262 260 260 257 254 252 252 254 256 258 260 262 262 260 256 254 254 256 259 264 268 273 277 280 281 281 281 284 287 290 289 279 270 233 228 237 237 236 236 237 232 223 208 203 198 200 233 252 257 258 260 261 260 261
296 294 294 292 290 287 286 288 294 302 309 310 308 303 297 293 292 292 292 292 294 296 298 299 297 294 292 292 295 297 298 293 283 275 271 268 263 259 258 257 256 255 255 257 259 261 261 257 255 255 257 261 265 269 272 275 277 278 278 280 281 281 279 283 283 262 229 236 233 227 225 223 213 193 180 193 199 204 211 231 241 248 253 255 260 263
290 291 290 289 289 290 292 299 306 311 311 306 300 296 293 291 291 291 290 290 293 297 302 304 302 299 296 300 305 310 312 312 310 304 292 284 279 276 269 265 262 259 256 254 254 256 260 260 261 261 261 262 263 265 268 271 274 275 276 277 276 275 275 280 280 271 243 236 226 213 203 195 188 184 195 207 208 202 206 226 237 244 249 251 256 261
289 289 288 287 290 294 302 308 311 309 302 296 291 289 288 287 286 285 286 290 298 305 312 313 310 307 306 311 315 317 316 315 313 311 306 296 288 281 272 266 265 263 260 257 254 253 254 258 262 265 266 263 261 260 261 264 268 271 273 275 276 277 278 280 278 267 243 230 208 180 164 170 177 188 203 210 205 198 200 229 252 268 279 276 271 268
291 291 291 293 297 302 306 306 304 300 294 290 287 284 283 282 283 285 291 303 313 318 320 317 311 308 307 311 313 313 312 311 311 311 311 309 306 300 286 276 270 266 262 258 255 252 251 252 253 256 257 258 258 258 258 258 260 264 268 272 276 279 281 283 281 266 228 213 175 155 154 165 174 183 190 183 179 176 212 244 277 287 290 286 283 281
295 296 299 302 304 304 302 300 296 292 288 286 284 283 282 284 290 300 313 325 327 324 318 314 310 307 305 306 306 306 306 307 309 312 314 316 317 317 314 306 295 284 272 261 254 250 248 246 245 245 246 249 253 257 259 258 258 259 263 269 275 279 282 284 287 205 192 175 155 155 165 170 170 164 155 147 149 87 24 9 342 304 277 280 284 288
297 297 297 298 298 297 296 296 294 290 288 289 289 289 287 296 314 328 336 334 329 323 317 314 312 310 309 308 306 305 305 307 309 313 317 321 325 326 326 324 320 314 305 287 267 252 245 242 239 237 236 239 245 252 258 259 260 260 263 268 273 277 279 280 272 140 151 149 152 159 174 161 140 132 138 157 171 178 22 354 329 304 279 278 283 289
293 290 289 289 289 290 293 293 292 291 291 292 291 290 292 315 346 351 342 334 328 324 321 317 315 313 311 310 311 312 313 314 315 318 323 328 331 332 331 331 331 329 325 321 312 291 263 247 236 230 228 229 233 241 252 258 260 261 260 263 267 271 271 267 217 144 155 147 144 143 139 110 100 110 133 163 166 137 30 342 323 311 306 302 299 297
290 287 283 280 281 284 288 291 292 292 292 291 289 289 299 336 352 348 339 334 330 327 323 319 315 312 309 311 314 318 321 320 320 322 328 332 333 333 333 335 336 335 333 332 332 329 319 307 279 242 225 224 227 234 250 260 264 263 257 255 255 257 255 236 145 130 141 129 126 126 127 124 124 130 146 154 149 130 49 356 347 345 345 339 326 320